Location: Bay Shore Mobile Home Park
(38.5762°N, 75.0841°W)
Time: 09:20:47
(UTC+00:00)

Cosmos 2151 Rocket - Pass Details

Date: 15 November 2025
Orbit: 612 x 635 km, 82.5° (Epoch: 05 December)

Event Time Altitude Azimuth Distance (km) Brightness Sun altitude
Rises 23:23:49 0° 186° (S) 2,906 7.2 -19.0°
Reaches altitude 10° 23:26:02 10° 186° (S) 2,006 6.3 -19.4°
Maximum altitude 23:30:30 90° 258° (WSW) 640 3.5 -20.2°
Drops below altitude 10° 23:35:00 10° 7° (N) 2,029 6.0 -21.1°
Enters shadow 23:35:04 10° 7° (N) 2,050 6.1 -21.1°
